Location: Walter Springs
(38.6535°N, 122.3580°W)
Time: 18:29:00
(UTC+00:00)

Daily predictions for brighter satellites

Satellite Brightness Start Highest point End
(mag) Time Altitude Azimuth Time Altitude Azimuth Time Altitude Azimuth
ATLAS 5 CENTAUR R/B 3.1 12:05:18 28° ESE 12:05:18 28° ESE 12:08:34 10° NE
PSLV R/B 4.5 12:04:10 10° NNE 12:07:24 46° NE 12:07:24 46° NE
CZ-2C R/B 3.3 12:04:32 10° NNE 12:07:32 39° N 12:07:32 39° N
Milstar 3 Cent rocket 3.5 12:11:55 25° SSE 12:11:55 25° SSE 12:14:48 10° ESE
NOSS 3-4 (A) 4.1 12:09:11 32° SSE 12:11:24 47° ESE 12:17:10 10° NE
NOSS 3-4 (C) 4.1 12:09:14 31° SSE 12:11:31 46° ESE 12:17:16 10° NE
Cosmos 1386 Rocket 4.4 12:08:08 10° NNW 12:14:02 65° WNW 12:14:02 65° WNW
Cosmos 2322 4.4 12:16:14 10° NNW 12:21:49 53° ENE 12:27:19 10° SE
FENGYUN 3A 3.8 12:17:13 10° NNE 12:22:40 71° ESE 12:25:55 25° S
CZ-4C R/B 2.1 12:23:22 53° S 12:24:18 65° ESE 12:29:46 10° NE
Cosmos 1805 Rocket 4.0 12:19:52 10° N 12:24:18 62° E 12:28:42 10° SSE
ATLAS 2AS CENTAUR R/B 3.9 12:18:59 10° S 12:26:23 47° ESE 12:33:49 10° NE
Delta 2 Rocket 3.8 12:26:45 59° SSE 12:26:45 59° SSE 12:31:27 10° ESE
Meteor 2-17 Rocket 4.5 12:22:48 10° N 12:28:52 78° E 12:34:56 10° S
Landsat 5 3.6 12:25:20 10° SSE 12:29:05 63° ENE 12:32:56 10° N
Cosmos 883 Rocket 4.3 12:29:18 48° SW 12:30:55 66° W 12:37:01 10° N
ISS -1.0 12:30:59 13° N 12:31:35 14° NNE 12:33:23 10° NE
Cosmos 2344 3.9 12:36:35 37° W 12:38:24 43° NW 12:45:48 10° NNE
Cosmos 1484 Rocket 2.6 12:37:56 10° NNE 12:41:39 85° E 12:41:55 76° S
Sich 1 3.1 12:38:15 10° N 12:42:41 75° E 12:47:02 10° SSE
GPS 2-04 Rocket1 2.9 12:45:07 52° SSE 12:45:07 52° SSE 12:48:39 10° E
Cosmos 1782 4.3 12:42:15 10° SSE 12:45:53 36° E 12:49:32 10° NNE
Cosmos 2360 Rocket 2.4 12:46:08 43° W 12:46:44 44° WSW 12:52:04 10° S
Cosmos 1666 Rocket 4.5 12:43:42 10° N 12:47:58 50° E 12:52:14 10° SSE
Cosmos 2251 Rocket 3.9 12:49:17 40° WNW 12:49:43 41° WNW 12:54:47 10° N
CZ-3 R/B 3.8 12:36:22 20° SW 12:50:48 41° S 12:57:59 10° ESE
Cosmos 2333 4.1 12:47:06 10° NNW 12:52:52 75° WSW 12:58:38 10° SSE
USA 276 4.1 12:53:32 19° N 12:53:32 19° N 12:55:32 10° NNE
Cosmos 2237 Rocket 4.5 12:48:45 10° N 12:53:20 24° NE 12:57:51 10° ESE
Cosmos 2315 Rocket 4.1 12:50:24 23° SSW 12:54:08 52° W 13:00:12 10° N
Geosat 4.0 12:49:26 10° NNE 12:54:22 57° WNW 12:56:16 35° WSW
Cosmos 1606 4.5 12:57:47 19° NNW 12:57:47 19° NNW 12:59:19 10° NNW
Cosmos 614 Rocket 4.1 12:55:10 36° WSW 12:56:58 52° WNW 13:02:05 10° N
USA 238 DEB 3.8 12:51:24 10° NW 12:58:44 76° WSW 13:06:20 10° SSE
USA 238 3.8 12:51:30 10° NW 12:58:51 77° WSW 13:06:27 10° SSE
H-2A R/B 1.8 13:01:15 10° S 13:05:30 80° WSW 13:09:41 10° NNW
CZ-4B R/B 3.2 13:05:04 10° SE 13:07:50 30° ENE 13:10:35 10° N
Cosmos 2227 Rocket 4.0 13:03:41 10° SSE 13:08:37 32° ESE 13:13:35 10° NE
Cosmos 407 Rocket 3.4 13:03:39 10° SSW 13:08:48 74° WNW 13:13:58 10° NNE
Cosmos 1151 Rocket 2.9 13:04:37 10° S 13:08:56 89° W 13:13:15 10° N
CZ-4B R/B 3.5 13:05:49 10° NNE 13:09:29 88° ESE 13:13:07 10° SSW
Cosmos 2333 Rocket 2.2 13:07:50 10° NNW 13:13:32 63° WSW 13:19:12 10° S
SKYMED 2 4.1 13:11:31 10° SSE 13:15:47 62° ENE 13:20:04 10° N
ALOS 3.0 13:14:00 10° N 13:18:09 32° WNW 13:20:25 21° WSW
Cosmos 2074 Rocket 4.0 13:12:07 10° N 13:18:21 86° E 13:24:34 10° S
Cosmos 1633 Rocket 3.0 13:15:19 10° N 13:19:43 86° W 13:24:05 10° S
Cosmos 1190 Rocket 3.9 13:14:29 10° SSW 13:19:47 78° WNW 13:25:07 10° NNE
Centaur D AC-25 4.3 13:12:01 17° WSW 13:19:57 35° SSW 13:24:09 10° SE
SWAS 4.3 13:15:51 10° NNW 13:20:10 74° WSW 13:24:27 10° SSE
Cosmos 1602 3.7 13:17:35 10° N 13:21:32 90° E 13:25:25 10° S
OAO 3 Rocket 3.5 13:20:01 23° WSW 13:22:53 55° S 13:27:36 10° ESE
Cosmos 2297 Rocket 2.9 13:18:17 10° S 13:23:46 57° ESE 13:29:18 10° NNE
YAOGAN 6 4.5 13:21:03 10° NNE 13:24:13 32° E 13:27:22 10° SSE
Cosmos 676 Rocket 4.3 13:21:34 10° S 13:26:51 72° ESE 13:32:08 10° NNE
NOSS 3-2 (A) 4.4 13:20:25 10° NW 13:27:50 44° WSW 13:35:54 10° S
Meteor 1-26 Rocket 4.2 13:23:36 10° SSW 13:29:13 65° W 13:35:05 10° N
Cosmos 2219 Rocket 2.3 13:25:17 10° NNW 13:30:46 52° WSW 13:36:14 10° S
Lacrosse 5 2.0 13:26:08 11° NW 13:30:56 52° SW 13:35:50 10° SSE
Cosmos 192 4.4 13:30:48 10° NNW 13:35:39 57° WSW 13:40:29 10° S
Lacrosse 4 Rocket 3.2 13:37:25 14° WSW 13:37:25 14° WSW 13:39:20 10° SW
Cosmos 1933 4.5 13:35:06 14° WSW 13:37:31 23° WNW 13:40:47 10° NNW
Cosmos 1980 4.4 13:32:46 10° NNW 13:38:23 58° ENE 13:43:56 10° SE
CSL-04 DEB 4.2 13:35:26 10° S 13:39:24 73° WSW 13:43:20 10° NNW
CENTAUR R/B 3.4 13:32:40 10° NW 13:40:50 55° WSW 13:49:25 10° S
Envisat 3.5 13:37:27 10° NNE 13:42:31 66° ESE 13:47:32 10° S
Cosmos 2184 Rocket 4.1 13:38:17 10° NNW 13:44:31 61° W 13:50:46 10° S
COSMOS 2428 3.0 13:39:10 10° NW 13:44:37 47° WSW 13:50:03 10° S
H-2A R/B 2.7 13:41:19 10° N 13:45:14 80° WNW 13:49:05 10° SSW
USA 234 4.3 13:41:32 10° S 13:46:26 22° WSW 13:51:22 10° WNW
Cosmos 1812 2.7 13:43:23 10° S 13:47:13 87° E 13:51:04 10° N
CZ-2C R/B 3.9 13:44:25 10° SSW 13:47:14 17° SSE 13:50:04 10° ESE
RESURS DK-1 2.5 13:43:19 10° SSW 13:47:25 77° ESE 13:51:33 10° NNE
Cosmos 1140 Rocket 4.0 13:43:16 10° SW 13:48:05 38° WNW 13:52:55 10° N
Cosmos 1328 Rocket 4.0 13:45:17 10° SW 13:49:15 36° WNW 13:53:15 10° N
ATLAS 5 CENTAUR R/B 2.7 13:46:51 13° W 13:49:35 24° NW 13:53:06 10° N
NOSS 0 Rocket 3.9 13:44:16 10° NNW 13:50:27 80° WSW 13:56:38 10° SSE
Cosmos 1515 Rocket 3.5 13:46:18 10° SSW 13:50:36 66° W 13:54:58 10° N
Cosmos 1242 Rocket 2.3 13:49:33 10° S 13:52:59 82° W 13:56:28 10° N
Meteor 1-31 Rocket 3.8 13:50:38 10° NNW 13:53:49 25° WNW 13:56:59 10° SW
PSLV R/B 4.4 13:50:11 10° SSE 13:54:20 69° ENE 13:58:29 10° N
SeaSat 1 2.6 13:55:28 10° S 14:00:15 52° WSW 14:05:04 10° NW
H-2A R/B 3.2 13:48:09 10° W 14:02:18 44° SSW 14:06:01 10° SE
NOSS 3-4 (A) 4.3 13:57:20 10° WSW 14:02:27 30° NW 14:07:53 10° NNE
NOSS 3-4 (C) 4.3 13:57:25 10° WSW 14:02:33 30° NW 14:07:59 10° NNE
Cosmos 2219 3.2 13:57:00 10° SSW 14:02:40 72° WNW 14:08:19 10° NNE
ADEOS 4.5 13:59:13 10° N 14:03:37 28° WNW 14:08:01 10° SW
Cosmos 1470 Rocket 3.8 13:59:35 10° NNW 14:03:45 47° W 14:07:53 10° SSW
COSMO-SKYMED 1 3.1 13:59:55 10° SSW 14:03:53 36° W 14:07:55 10° NNW
MOS 1 Rocket 3.8 14:00:40 10° SSW 14:04:34 32° W 14:08:40 10° NNW
SAR-Lupe-4 4.0 14:01:53 10° SSE 14:05:24 66° ENE 14:08:56 10° N
